Temp
22 22 22 22 22 23 23 23 23 23 23 23 23 23 23 23 23 23 23 23 23 23 23 23 23 23 23 23 23 23 22 22 22 22 21 21 21 21 21 21 21 21 21 21 21 21 21 20 21 20 20 20 20 20 20 20 20 20 20 20 20 20 20 20 20 20 20 20 20 20 20 20 20 20 20 20 20 20 20 20 20 19 20 20 20
23 23 22 22 23 23 23 23 23 23 23 23 23 23 23 23 23 23 23 23 23 23 23 23 23 24 24 24 24 24 23 23 22 22 21 21 21 21 21 21 21 21 21 21 21 21 21 21 21 21 20 21 21 20 20 20 20 20 20 20 20 20 20 20 20 20 20 20 20 20 20 20 20 20 20 20 20 20 20 20 20 20 20 20 20
23 23 23 23 23 23 23 23 23 23 23 23 23 23 23 23 23 23 23 23 23 23 23 23 24 24 24 24 25 24 24 24 23 23 22 21 22 21 21 21 21 21 21 21 21 21 21 21 20 20 21 21 21 21 21 21 21 20 20 20 20 20 20 20 20 20 20 20 20 20 20 20 20 20 20 20 20 20 20 20 20 20 20 20 20
23 23 23 23 23 23 23 23 23 23 23 23 23 23 23 23 23 23 23 23 23 23 23 24 24 24 24 25 25 24 24 24 23 23 22 22 22 21 21 21 21 21 21 21 21 21 21 20 20 20 20 20 20 21 21 21 21 21 20 20 20 20 20 20 20 20 20 20 20 20 20 20 20 20 20 20 20 20 20 20 20 19 20 20 20
23 23 23 23 23 23 23 23 23 23 23 23 23 23 23 23 23 23 23 23 23 23 24 24 24 24 24 25 25 24 24 24 24 23 23 22 22 21 21 21 21 21 21 21 21 21 20 20 20 20 20 20 20 20 20 20 20 20 20 20 20 20 20 20 20 20 20 20 20 20 20 20 20 20 20 20 20 20 20 20 19 19 19 20 20
24 24 23 23 23 23 23 23 23 23 23 23 23 23 23 23 23 23 23 23 23 23 24 24 24 24 25 25 25 25 24 24 24 24 23 23 22 22 21 21 21 21 21 21 21 21 20 20 20 20 20 20 20 20 20 20 20 20 20 20 20 20 20 20 20 20 20 20 20 20 20 20 20 19 20 20 19 19 19 19 19 19 19 19 20
24 24 24 23 23 23 23 23 23 23 23 23 23 23 23 23 23 23 23 23 23 24 24 24 24 25 25 25 25 25 24 24 24 24 23 23 23 22 22 21 21 21 21 21 21 21 20 20 20 20 20 20 20 20 20 20 20 20 20 20 20 20 20 20 20 20 20 20 20 20 20 20 19 19 19 19 19 19 19 19 19 19 19 19 19
24 24 24 23 23 23 24 23 23 23 23 23 23 23 23 23 24 23 23 23 23 24 24 24 24 25 25 25 25 25 25 24 24 24 23 23 23 22 22 21 21 21 21 21 21 21 21 20 20 20 20 20 20 20 20 20 20 20 20 20 20 20 20 20 20 20 20 20 20 20 20 19 19 20 19 19 19 19 19 19 19 19 19 19 19
24 24 24 24 24 23 24 23 23 23 23 23 23 23 23 23 24 24 23 23 23 24 24 24 24 25 25 25 25 25 25 24 24 24 23 23 23 22 22 22 21 21 21 21 21 21 21 21 21 20 20 20 20 20 20 20 20 20 20 20 20 20 20 20 20 20 20 20 20 20 20 19 19 19 19 19 19 19 19 19 19 19 19 19 19
24 24 24 24 24 24 23 23 23 23 23 23 23 23 23 23 23 24 23 23 23 24 24 24 24 25 25 25 25 25 25 24 24 24 23 23 23 22 22 22 21 21 21 21 21 21 21 21 21 21 20 20 20 20 20 20 20 20 20 20 20 20 20 20 20 20 20 20 20 20 20 19 19 19 19 19 19 19 19 19 19 19 19 19 19
24 24 24 24 24 24 23 23 23 23 23 23 23 23 23 23 23 23 23 24 24 24 24 24 24 25 25 25 25 25 24 24 24 24 23 23 23 22 22 22 21 21 22 21 21 21 21 21 21 21 21 21 20 20 20 20 20 20 20 20 20 20 20 20 20 20 20 20 20 20 19 19 19 19 19 19 19 19 19 19 19 19 19 19 19
24 24 24 24 24 24 24 23 23 23 23 23 23 23 23 23 23 23 24 24 24 24 24 24 25 25 25 25 24 24 24 24 24 23 23 23 23 22 22 22 21 21 22 22 21 21 21 21 21 21 21 21 21 21 21 20 20 20 20 20 20 20 20 20 20 20 20 20 20 19 19 19 19 19 19 19 19 19 19 19 19 19 20 20 20
24 24 24 24 24 23 23 23 23 23 23 23 23 23 23 23 23 23 24 24 24 25 24 24 25 24 23 23 23 23 23 24 23 23 23 23 23 23 22 22 22 21 22 22 22 21 21 21 21 21 21 21 21 21 21 20 20 20 20 20 20 20 20 20 20 20 20 20 19 19 19 19 19 20 20 19 19 19 19 20 20 20 21 21 21
24 24 24 24 23 23 23 23 23 23 23 23 23 23 23 23 23 23 23 24 25 25 24 24 24 23 22 22 22 22 23 23 23 23 23 23 23 23 22 22 22 22 22 22 22 22 22 22 21 21 21 21 21 21 20 20 20 20 20 20 20 20 20 20 20 20 20 20 20 19 19 19 20 20 20 19 19 20 20 21 21 21 21 21 20
24 24 23 23 23 23 23 23 23 23 23 23 23 23 23 23 23 23 23 24 24 25 25 24 24 24 23 23 22 22 22 22 23 23 23 23 23 23 23 22 22 22 22 22 22 22 22 22 22 21 21 21 21 21 21 21 20 20 20 20 20 20 20 20 20 20 20 20 19 20 20 20 21 21 21 20 21 21 21 21 20 20 20 20 20
24 24 24 23 24 24 23 23 24 24 24 23 23 23 23 23 23 23 23 24 24 25 25 25 25 24 23 22 21 21 23 22 22 23 23 23 23 23 23 23 22 22 22 22 22 22 22 22 22 21 21 21 21 21 21 21 21 20 20 20 20 20 20 20 20 20 20 19 19 20 21 21 21 21 21 21 21 21 20 20 20 20 20 20 20
24 24 24 24 24 24 24 24 24 24 24 24 23 23 23 23 23 23 23 24 24 24 25 24 25 25 24 23 22 22 23 22 22 23 22 22 23 23 23 23 22 23 23 23 23 23 22 22 22 22 22 22 21 21 21 21 21 21 21 20 20 20 20 20 20 20 20 20 20 21 21 21 21 21 21 21 21 20 20 20 20 20 20 20 20
25 25 24 24 24 24 24 24 24 24 24 24 23 23 23 24 23 24 24 24 24 24 24 24 24 25 25 25 24 24 24 23 22 22 22 22 23 23 23 23 22 23 23 23 23 23 23 23 22 22 22 22 22 22 22 21 21 21 22 21 21 21 21 20 20 21 21 21 21 21 21 21 21 21 21 20 20 20 20 20 20 20 20 20 20
25 25 25 24 24 24 24 24 24 24 24 24 23 23 23 24 24 24 24 24 24 24 24 24 24 25 25 25 25 25 25 24 22 22 22 22 22 22 23 23 22 23 23 23 23 23 23 23 22 22 22 22 22 22 22 22 22 22 22 22 22 21 21 21 21 21 22 22 22 21 21 21 21 21 20 20 20 20 20 20 20 20 20 20 20
25 25 25 25 24 24 24 24 24 24 24 24 24 24 23 23 23 24 24 24 24 24 24 24 24 25 25 25 24 25 25 25 24 23 22 22 22 21 22 22 22 23 23 23 23 23 23 23 23 23 22 22 22 22 22 22 22 22 23 23 22 22 22 22 22 22 22 22 21 21 21 21 21 21 20 20 20 20 20 20 20 20 20 20 19
25 25 25 25 25 25 25 24 24 24 23 24 24 24 24 23 23 23 24 24 24 24 24 24 25 25 25 24 24 25 25 25 25 24 23 23 22 21 21 22 22 23 23 23 23 23 23 23 23 23 23 22 22 22 22 22 22 23 23 23 23 23 23 22 22 22 22 21 21 21 21 21 21 21 20 20 20 20 20 20 20 20 20 19 19
25 25 25 25 25 25 25 24 24 24 24 24 24 24 24 24 24 24 24 24 24 24 24 24 25 25 25 25 25 25 24 24 24 24 24 23 23 21 21 21 21 22 23 23 23 23 23 23 23 23 23 22 22 22 22 22 22 22 23 23 23 23 23 22 22 22 22 21 21 21 21 21 21 21 20 20 20 20 20 20 20 20 19 19 19
25 25 25 25 25 25 25 25 24 24 24 24 24 24 24 24 24 24 24 24 24 24 24 24 24 25 25 25 25 25 25 24 24 25 24 23 23 22 21 22 21 22 23 23 23 23 23 23 23 23 23 23 23 22 22 23 22 22 23 23 23 23 23 22 22 22 22 21 21 21 21 21 21 21 20 20 20 20 20 20 20 20 20 20 20
25 25 25 25 24 24 24 24 24 24 24 24 24 24 24 24 24 24 24 23 24 24 24 24 24 24 25 25 25 25 25 25 25 25 25 24 24 22 21 22 21 22 23 23 23 23 23 23 23 23 23 23 23 23 23 23 23 22 22 23 23 23 23 23 22 22 22 22 21 21 21 21 21 21 21 21 20 20 20 20 20 20 20 20 20
24 25 25 25 25 24 24 24 24 24 24 24 24 24 24 24 24 24 24 23 24 24 24 24 24 24 25 25 25 25 25 25 25 25 25 25 25 22 21 22 22 22 23 23 23 23 23 23 23 23 23 23 23 23 23 23 23 23 22 23 23 23 23 23 22 22 22 22 22 21 21 21 21 21 21 21 21 20 20 20 20 20 20 20 20
25 25 25 25 25 25 24 24 24 24 24 24 24 24 24 24 24 24 24 24 24 24 24 24 24 24 24 25 25 25 25 25 25 25 25 25 25 24 22 22 22 22 23 23 23 22 23 23 23 23 23 23 23 23 23 23 23 23 22 23 23 23 23 23 23 22 22 22 22 22 22 21 21 21 21 21 21 21 21 21 21 20 20 20 20
25 25 25 25 25 25 25 24 24 25 24 24 24 24 24 24 24 24 24 24 24 24 24 24 24 24 24 24 25 25 25 25 25 25 25 25 25 25 24 23 22 22 21 22 22 22 23 24 24 24 23 23 23 23 23 23 23 23 23 22 23 23 23 23 23 22 22 22 22 22 22 22 22 21 21 21 21 21 21 21 21 21 20 20 20
25 25 25 25 25 25 25 25 25 24 25 24 24 24 24 24 24 24 24 24 24 24 24 24 24 24 24 24 24 25 25 25 25 25 25 25 25 25 25 24 24 23 22 22 21 21 23 23 23 24 24 23 24 23 23 23 23 23 23 22 23 23 23 23 23 22 22 22 22 22 22 22 22 22 21 21 21 21 21 21 21 21 21 20 20
25 25 25 25 25 25 25 25 25 24 24 24 24 24 24 24 24 24 24 24 24 24 24 24 24 24 24 24 24 25 25 25 25 25 25 25 25 25 25 25 25 24 24 23 22 21 23 24 23 24 24 24 24 24 23 23 23 23 23 23 23 23 23 23 22 22 22 22 22 22 22 22 22 22 21 21 21 21 21 21 21 21 21 20 20
25 25 25 25 25 25 25 25 25 25 24 24 24 24 24 24 24 24 24 24 24 24 24 24 24 24 24 24 24 24 25 25 25 25 25 25 25 25 25 25 25 25 24 24 23 23 24 24 24 25 25 25 24 24 24 24 24 23 23 23 23 23 23 23 23 22 22 22 22 22 22 22 22 21 21 21 21 21 21 21 21 21 20 20 20
25 25 25 25 25 25 25 25 25 25 25 24 24 24 24 24 24 24 24 24 24 24 24 24 24 24 24 24 24 24 25 24 25 25 25 25 25 25 25 25 25 25 24 23 23 24 24 25 25 26 25 25 25 24 24 24 24 24 23 23 23 23 23 23 23 22 22 22 22 22 22 22 21 21 21 21 21 21 21 21 21 21 20 20 20
25 25 25 25 25 25 25 25 25 25 25 25 25 24 24 24 24 24 24 24 24 24 24 24 24 24 24 24 24 24 24 24 24 25 25 25 25 25 25 25 25 25 24 23 22 23 24 25 25 26 25 25 25 25 25 25 24 24 24 23 23 23 23 23 23 23 22 22 22 22 22 22 21 21 21 21 21 21 21 21 21 21 20 20 20
25 25 25 25 25 25 25 25 25 25 25 25 25 24 24 24 24 24 24 24 23 24 24 24 24 24 24 24 24 24 24 24 24 24 25 25 25 25 25 25 25 24 24 23 22 22 24 25 25 25 26 25 25 25 25 25 25 25 24 24 24 23 23 23 23 23 23 22 22 22 22 22 21 21 21 21 21 21 21 21 21 21 20 20 20
24 25 25 25 25 25 25 25 25 25 25 25 25 25 24 24 24 24 24 24 23 23 23 24 24 24 24 24 24 24 24 24 24 24 25 25 25 25 25 24 24 24 24 24 23 22 23 24 25 25 25 25 25 25 25 25 25 25 25 25 24 24 24 23 23 23 23 22 22 22 22 22 22 21 21 21 21 21 21 21 21 21 20 20 20
24 24 25 25 25 25 25 25 25 25 25 25 25 25 24 24 24 24 24 24 24 23 23 23 24 24 24 24 24 24 24 24 24 24 24 25 25 25 24 24 24 24 24 24 24 23 23 24 25 25 25 25 25 25 25 25 25 25 25 25 25 24 24 24 24 23 23 23 22 22 22 22 22 21 21 21 21 21 21 21 21 21 21 20 20
24 24 24 25 25 25 25 25 25 25 25 25 25 25 25 24 24 24 24 24 24 24 23 23 24 23 23 24 24 24 24 24 24 24 24 24 24 24 24 24 24 24 24 24 24 24 23 23 25 25 25 25 25 25 25 25 25 25 25 25 25 24 24 24 24 24 23 23 23 22 22 22 22 22 21 21 21 21 21 21 21 21 21 20 20
24 24 24 24 24 24 25 25 25 25 25 25 25 25 25 25 24 24 24 24 23 23 23 23 23 23 23 23 24 24 23 23 24 24 24 25 25 24 24 24 24 24 24 24 24 24 23 23 24 25 25 25 25 25 25 25 25 25 25 25 24 24 24 24 24 24 24 23 23 23 22 22 22 22 21 21 21 21 21 21 21 21 21 20 20
24 24 24 24 24 24 25 25 25 25 25 25 25 25 25 24 24 24 24 24 24 23 23 23 23 23 23 23 23 23 23 23 24 24 24 25 25 24 24 24 24 24 24 24 24 24 23 23 23 23 24 24 24 25 25 25 25 25 25 25 24 24 24 24 24 24 23 23 23 23 22 22 22 22 21 21 21 21 21 21 21 21 21 20 20
24 24 24 24 24 24 24 25 25 25 25 25 25 24 24 24 24 24 24 24 24 23 23 23 23 23 23 23 23 23 23 23 23 24 24 24 24 24 25 24 24 24 24 24 24 23 23 23 22 23 23 23 23 24 24 24 24 24 24 24 23 24 24 24 24 24 24 23 23 23 23 22 22 22 22 21 21 21 21 21 21 21 21 20 20
24 24 24 24 24 24 24 24 24 24 24 24 24 24 24 24 24 24 24 24 23 23 23 23 23 23 23 23 23 23 23 23 23 23 23 23 24 24 24 24 24 23 23 23 23 23 23 22 22 22 22 22 22 23 23 23 23 23 23 22 22 23 24 23 24 24 24 23 23 23 23 22 22 22 22 21 21 21 21 21 21 21 21 20 20
24 24 24 24 24 24 24 24 24 24 24 24 24 24 24 24 24 24 24 24 23 23 23 23 23 23 23 23 23 23 23 24 24 24 23 23 23 23 24 24 23 23 23 22 22 22 22 21 21 22 21 21 22 22 22 22 22 23 23 22 22 23 23 22 23 23 23 23 23 23 23 23 22 22 22 21 21 21 21 21 21 21 21 21 20
24 24 24 24 24 24 24 24 24 24 24 24 24 24 24 24 24 24 24 24 24 23 23 23 23 23 23 23 23 24 23 23 23 24 24 23 23 23 24 24 23 23 23 22 22 22 21 21 21 21 21 21 21 21 21 22 22 22 22 22 22 22 22 21 21 23 23 23 22 22 23 23 22 22 22 22 22 22 21 21 21 21 21 21 20
24 24 24 24 24 24 24 24 24 24 24 24 24 24 25 25 24 24 24 24 24 23 23 23 23 23 23 23 23 23 23 23 23 23 24 24 23 23 23 23 23 23 23 22 22 22 21 21 21 21 21 21 22 22 22 22 22 22 21 21 21 21 21 20 20 22 23 23 22 22 23 23 22 22 22 22 22 22 22 22 21 21 21 21 21
23 23 24 24 24 24 24 24 24 24 24 24 24 24 24 24 24 24 24 24 24 23 23 23 23 23 23 23 23 23 23 23 23 23 23 23 24 23 23 24 23 23 23 23 23 22 22 22 21 21 21 21 22 22 22 22 22 22 21 21 21 20 20 20 20 21 22 22 22 21 22 23 22 21 22 22 23 23 23 22 22 21 21 21 21
23 23 24 24 24 24 24 24 24 24 24 24 24 24 24 24 24 24 24 24 24 24 23 23 23 23 23 23 23 23 23 23 23 23 23 23 23 23 23 23 23 23 23 23 23 23 23 22 22 22 22 22 22 22 23 23 22 22 21 21 21 20 20 20 20 21 22 21 21 21 21 22 22 21 21 22 23 23 23 23 22 22 21 21 20
23 24 24 24 24 24 24 24 24 24 24 24 24 24 24 25 24 24 24 24 24 24 24 24 24 23 23 23 23 23 23 23 23 23 23 23 23 23 23 23 23 23 23 23 23 23 23 22 22 22 23 23 23 23 23 23 22 22 22 21 21 21 21 21 21 21 21 21 21 21 20 21 22 21 21 22 23 23 23 23 23 22 22 21 20
24 24 24 24 24 24 24 24 24 24 24 24 25 25 25 25 24 24 24 24 24 24 24 24 24 24 24 23 23 23 23 23 23 23 23 23 23 23 22 22 23 23 23 23 23 23 23 23 23 23 23 23 23 23 23 23 22 22 22 22 22 22 21 21 21 21 20 20 21 20 20 21 21 21 21 23 23 22 23 23 23 23 22 21 20
24 24 24 24 24 24 24 24 24 24 24 25 25 25 25 25 24 24 24 24 24 24 24 24 24 24 24 24 24 24 24 24 24 24 24 23 23 23 23 22 22 23 23 23 23 23 23 23 23 23 23 23 23 23 23 23 22 22 22 22 22 21 21 20 20 20 20 20 21 20 20 21 21 20 21 22 22 22 22 23 23 23 22 21 20
24 24 24 24 24 24 24 24 24 24 24 25 25 25 25 25 25 24 24 24 24 24 24 24 24 24 24 24 24 24 24 24 24 24 24 24 23 23 23 22 22 22 22 22 22 23 23 23 23 23 23 23 23 23 23 23 23 22 22 21 21 20 20 20 20 20 20 20 21 20 20 20 21 20 21 21 21 21 22 22 23 23 22 21 21
24 24 24 24 24 24 24 24 24 24 24 25 25 25 25 25 25 25 25 24 24 24 24 24 24 24 24 24 24 24 24 24 24 24 24 24 23 23 23 23 22 22 22 22 22 23 23 23 23 23 23 23 23 23 23 23 22 22 21 21 21 21 20 19 20 20 20 20 21 21 20 20 21 20 20 20 20 20 21 22 22 22 22 21 20
24 24 24 24 24 25 25 25 25 25 25 25 25 25 25 25 25 25 25 24 24 24 24 24 24 24 24 24 24 24 24 24 24 24 24 24 24 23 23 23 22 22 23 23 23 23 23 23 23 23 23 23 23 23 23 23 22 22 21 21 21 20 19 19 20 19 19 20 21 20 20 20 20 20 20 19 19 19 20 21 21 22 21 21 20
Height
851 852 852 853 853 854 854 854 854 855 855 855 855 855 855 855 855 855 855 856 856 856 856 856 857 857 857 857 857 857 857 857 857 858 859 859 860 861 862 862 862 863 864 865 865 866 866 867 867 868 868 868 869 869 869 870 870 870 871 871 872 872 873 873 873 873 874 874 874 874 874 873 873 873 873 873 873 873 872 872 871 871 871 870 869
851 851 852 853 853 854 854 854 854 855 855 855 855 855 855 856 856 855 855 855 856 856 857 857 857 857 857 856 856 856 857 857 857 858 859 859 860 861 862 862 863 863 864 865 865 866 867 867 868 868 868 869 869 869 870 870 871 871 871 872 872 873 873 873 873 874 874 874 874 874 874 874 873 873 873 873 873 873 873 872 872 871 871 870 870
851 852 852 853 853 853 854 854 855 855 855 855 855 856 855 856 856 856 856 856 856 856 857 857 857 857 857 856 856 856 857 857 857 858 859 859 860 861 862 863 863 864 864 865 865 866 867 867 868 868 869 869 869 869 870 870 871 871 872 872 872 873 873 873 874 874 874 874 874 874 874 874 874 873 874 873 873 873 873 872 872 871 871 870 870
851 852 852 852 853 853 854 854 855 855 856 856 856 856 856 856 856 856 856 856 857 857 857 857 858 858 857 857 856 856 857 857 857 858 859 859 860 861 862 863 863 864 864 865 866 866 867 867 868 868 869 869 869 870 870 870 871 871 872 872 873 873 873 874 874 874 874 874 874 874 874 874 874 874 874 874 873 873 873 872 872 871 871 870 869
851 852 852 852 853 854 854 854 855 855 856 856 856 856 856 856 856 856 856 857 857 857 857 857 858 858 857 857 857 857 857 857 858 858 859 860 860 861 862 863 863 864 864 865 866 866 867 867 868 868 869 869 870 870 870 871 871 871 872 872 873 873 873 873 874 874 874 874 874 874 874 874 874 874 873 873 873 873 872 872 872 871 871 870 869
851 851 852 852 853 853 854 854 855 855 856 856 856 856 856 856 856 856 857 857 857 857 858 858 858 858 858 857 857 857 857 858 858 858 859 860 860 861 861 862 863 864 864 865 865 866 867 867 868 868 869 869 870 870 871 871 871 871 872 872 872 873 873 873 873 874 874 874 874 874 874 874 874 874 873 873 873 873 872 872 871 871 870 869 869
850 851 852 852 853 853 854 854 855 855 856 856 856 856 856 856 856 856 857 857 858 858 858 858 858 858 858 857 857 857 858 858 858 859 860 860 861 861 862 862 863 864 864 865 865 866 866 867 868 868 869 870 870 870 871 871 871 872 872 872 872 873 873 873 873 874 874 874 874 874 874 874 874 873 873 873 873 872 872 871 871 870 870 869 868
850 851 851 852 852 853 854 854 855 855 856 856 856 856 856 857 856 857 857 858 858 858 859 859 859 859 858 858 857 858 858 858 858 859 860 861 861 862 862 863 863 863 864 864 865 866 866 867 868 868 869 869 870 870 871 871 871 871 872 872 872 873 873 873 873 873 874 874 874 874 874 874 873 873 873 873 872 872 871 871 870 870 869 868 868
849 850 851 851 852 853 853 854 855 855 856 856 856 856 856 857 857 857 857 858 858 859 859 859 859 859 858 858 858 859 859 859 859 860 861 861 862 862 862 863 863 863 864 864 865 866 866 867 868 868 869 869 870 870 870 871 871 871 871 872 872 872 872 873 873 873 873 873 874 874 874 874 873 873 873 873 872 872 871 870 870 869 869 868 867
849 850 850 851 852 852 853 854 854 855 855 856 856 856 856 857 857 857 857 858 858 859 859 859 859 859 858 858 859 859 859 860 860 861 862 862 862 863 863 863 863 863 863 864 865 866 866 867 868 868 868 869 869 870 870 870 871 871 871 871 872 872 872 872 873 873 873 873 873 873 874 873 873 873 873 872 872 871 870 870 869 869 868 868 867
848 849 850 851 851 852 853 854 854 855 855 856 856 856 856 856 856 857 857 858 859 859 859 859 859 859 859 859 860 860 860 861 862 862 863 863 863 863 863 863 863 863 864 864 865 866 866 867 867 868 868 868 869 869 869 870 870 870 870 871 871 872 872 872 872 872 872 873 873 873 873 873 873 872 872 872 871 871 870 869 869 868 868 867 867
847 848 849 850 851 852 853 853 854 854 855 855 856 856 856 856 857 857 857 858 859 859 859 859 859 860 860 860 861 862 862 862 863 863 864 864 864 864 864 864 864 864 864 864 865 866 866 867 867 867 868 868 868 869 869 869 869 870 870 870 871 871 871 871 872 872 872 872 872 872 872 872 872 872 871 871 871 870 870 869 869 868 868 867 867
846 847 848 849 850 852 852 853 854 854 855 855 855 856 856 857 857 857 857 858 858 858 859 859 860 860 861 862 862 863 863 864 864 864 865 865 864 864 864 864 864 865 865 865 865 866 866 866 867 867 867 868 868 868 868 869 869 870 870 870 870 870 870 871 871 871 871 872 872 872 872 871 871 871 870 870 870 870 869 869 869 869 868 868 867
845 846 847 849 850 851 852 852 853 854 854 855 855 856 856 856 857 857 858 858 858 858 859 859 860 861 861 863 864 865 865 865 865 866 866 866 865 865 865 865 865 865 866 866 866 866 866 866 866 867 867 867 867 868 868 868 869 869 869 869 870 870 870 870 870 870 871 871 871 871 871 871 870 870 870 870 870 870 870 870 869 869 869 868 868
844 845 846 848 849 850 851 852 853 853 854 854 855 855 856 856 856 857 857 858 858 858 859 860 861 861 862 865 866 867 867 866 866 866 866 866 866 866 866 866 866 866 866 866 866 866 866 866 866 866 866 867 867 867 868 868 868 869 869 869 869 869 869 870 870 870 870 870 870 870 870 870 870 870 870 870 870 870 870 870 870 870 869 869 868
843 844 845 847 848 849 850 851 852 853 853 854 854 855 855 855 856 857 857 858 858 859 859 859 860 862 863 866 867 869 870 867 865 866 866 866 866 866 867 867 866 867 867 866 866 866 866 866 866 866 866 867 867 867 867 867 868 868 868 868 868 869 869 869 870 870 870 870 870 870 870 870 870 870 870 870 870 871 871 871 870 870 870 869 869
842 843 844 846 847 848 849 850 851 852 852 853 854 854 855 855 856 856 857 857 858 858 859 860 860 861 862 865 868 870 870 867 866 867 866 866 866 867 867 867 867 867 867 867 867 867 866 866 866 866 866 866 867 867 867 867 867 868 868 868 868 868 869 869 869 869 869 870 870 870 870 870 870 870 870 871 871 871 871 871 871 870 870 869 869
841 842 844 844 846 847 848 849 850 851 852 853 853 854 854 855 855 856 856 857 858 858 859 859 860 860 861 862 864 866 865 865 868 868 867 866 866 867 867 868 868 868 868 867 867 867 867 866 866 866 866 866 866 866 867 867 867 867 867 868 868 868 868 869 869 869 869 869 870 870 870 870 870 870 870 871 871 871 871 870 870 870 870 869 869
840 842 843 844 845 846 847 848 849 850 851 852 852 853 854 854 855 855 856 857 857 858 859 859 860 860 861 861 862 862 862 863 866 868 869 868 866 866 867 867 868 868 868 868 867 867 867 866 866 866 866 866 866 866 866 866 866 867 867 867 867 868 868 868 869 869 869 869 870 870 870 870 870 870 870 870 870 870 870 870 870 870 870 869 869
839 840 842 843 844 845 846 847 848 849 850 851 852 852 853 854 854 855 855 856 857 857 858 859 859 860 860 861 861 861 861 862 863 864 867 869 867 867 867 867 868 867 867 867 867 867 867 866 866 866 866 866 866 866 866 866 866 866 867 867 867 868 868 868 868 869 869 869 869 870 870 870 870 870 870 870 870 870 870 870 870 870 869 869 868
838 839 841 842 843 844 845 846 847 848 849 850 851 851 852 853 853 854 855 855 856 857 858 858 859 860 860 861 861 861 861 861 862 862 863 867 868 867 866 867 867 866 866 867 866 867 866 866 866 866 866 866 865 865 866 866 866 866 867 867 867 868 868 868 868 868 869 869 869 870 870 870 870 870 870 870 870 870 870 870 869 869 869 868 868
836 837 839 840 842 843 844 845 846 847 848 849 850 850 851 852 853 854 854 855 856 856 857 858 858 859 860 860 861 861 861 861 861 862 862 864 866 865 865 865 865 865 865 865 865 866 866 866 866 866 865 865 865 865 866 866 866 866 867 867 867 867 867 868 868 868 869 869 869 869 870 870 870 870 870 870 870 869 869 869 869 869 868 868 867
834 835 837 839 840 841 842 843 844 845 847 847 848 849 850 851 852 853 854 855 855 856 857 858 858 858 859 859 860 860 860 860 860 861 861 862 863 864 864 864 864 863 863 864 864 865 865 865 865 865 865 865 865 865 865 866 866 866 866 866 866 867 867 867 868 868 868 869 869 869 869 869 869 869 869 869 869 869 869 869 868 868 868 867 867
832 833 835 837 838 840 841 842 843 844 845 846 847 848 849 850 851 852 853 854 855 855 856 857 857 857 858 858 859 859 859 859 859 859 860 860 861 862 862 863 863 863 862 863 863 863 864 864 864 864 864 865 865 865 865 865 865 865 866 866 866 866 867 867 867 868 868 868 868 868 869 869 869 869 869 869 868 868 868 868 867 867 867 866 866
829 830 832 834 836 838 839 840 841 842 843 845 846 847 848 849 850 851 852 852 853 854 855 856 856 856 857 857 858 858 858 859 859 859 859 859 860 860 861 862 862 862 862 862 862 862 862 862 862 863 863 864 864 864 865 865 865 865 865 865 866 866 866 867 867 867 867 868 868 868 868 868 868 868 868 868 868 867 867 867 867 867 866 865 865
826 828 830 833 835 836 837 838 840 841 842 843 844 846 847 848 849 850 850 851 852 853 853 854 855 855 856 856 856 856 857 858 858 858 858 859 859 859 860 862 862 862 862 861 861 861 860 860 860 861 862 862 863 864 864 864 864 865 865 865 865 866 866 866 866 866 867 867 867 867 867 867 867 867 867 867 867 867 867 866 866 866 865 865 864
825 827 829 831 833 834 836 837 838 840 841 842 843 844 846 847 847 848 849 850 851 851 852 853 854 854 855 855 855 856 856 857 857 857 857 857 857 858 859 861 863 863 861 861 860 859 857 858 859 859 860 861 861 862 862 863 863 864 864 864 864 865 865 865 865 866 866 866 866 866 866 866 866 866 866 866 866 866 866 865 865 865 864 864 863
824 826 828 829 831 833 834 835 837 838 839 840 841 842 844 845 846 847 847 848 849 850 851 851 852 853 853 854 854 854 855 856 855 856 856 856 857 857 858 859 861 863 862 861 860 857 856 857 858 857 858 859 859 860 861 861 862 863 863 863 863 864 864 864 864 864 865 864 865 865 864 864 864 864 864 864 865 865 864 864 864 864 863 862 862
823 824 826 828 830 831 833 834 835 836 837 838 839 840 842 843 844 845 845 846 847 848 849 850 850 851 852 852 853 853 853 854 854 854 854 855 856 857 857 857 859 861 862 862 859 856 855 856 855 855 856 856 857 858 859 859 859 861 861 861 862 862 862 863 863 863 863 863 863 863 863 863 863 863 863 863 863 863 863 863 863 862 862 861 861
821 823 825 826 828 830 831 832 833 834 835 836 838 839 840 841 841 842 844 845 846 846 847 848 849 850 850 851 851 851 852 852 852 853 853 854 855 855 856 856 857 857 859 860 858 854 853 854 853 853 854 854 855 856 856 856 857 858 859 859 859 860 861 861 861 862 862 862 862 862 861 861 861 861 861 861 861 861 861 861 861 861 860 860 860
819 821 823 824 826 828 829 830 831 832 833 834 836 837 838 838 839 840 842 843 844 844 845 846 847 848 848 849 849 849 850 850 851 852 852 853 853 854 855 855 856 856 856 858 857 853 851 852 851 852 852 853 854 854 854 854 855 856 857 857 857 857 858 859 859 860 860 860 860 859 859 859 859 859 859 859 859 859 859 859 859 859 859 859 858
817 819 820 822 823 825 826 828 829 830 831 832 833 834 835 836 837 838 840 841 842 842 844 844 845 846 846 847 847 847 848 849 849 850 850 851 852 852 853 854 854 855 855 856 855 851 849 850 851 851 852 852 853 853 853 853 853 854 854 854 854 855 856 856 856 857 857 857 857 857 857 856 856 856 856 857 857 857 857 857 857 857 857 857 857
815 817 818 819 821 822 824 825 826 827 828 829 831 832 833 834 835 837 838 839 840 840 842 843 843 844 844 845 845 846 847 847 848 848 849 849 850 850 852 852 852 853 853 854 853 849 848 849 850 850 851 851 850 850 851 851 851 851 851 851 852 852 852 852 853 853 853 853 853 853 853 853 853 854 854 854 854 854 854 855 855 855 855 855 855
812 814 815 817 818 820 821 822 824 825 826 827 828 829 831 832 833 834 835 836 837 838 839 840 841 842 842 843 843 844 845 845 845 846 847 847 848 848 849 850 850 851 851 852 851 849 847 846 848 849 849 849 848 848 848 848 848 849 848 848 849 849 849 849 849 849 850 850 850 850 850 850 851 851 851 852 852 852 852 852 853 853 853 853 853
810 811 813 814 816 817 819 820 821 822 823 824 826 827 828 829 830 832 833 834 835 835 836 837 838 839 840 840 841 841 843 843 843 843 844 844 845 846 847 848 848 849 850 850 850 849 846 845 845 846 846 846 845 845 846 845 846 846 845 845 845 845 846 846 846 846 846 847 847 847 847 848 848 849 849 849 849 850 850 850 851 851 852 852 852
807 808 810 812 814 815 816 817 818 819 820 821 823 824 825 827 828 829 830 831 832 833 833 834 836 837 838 838 838 839 840 840 840 841 841 841 842 843 844 845 845 846 847 847 847 846 845 843 842 843 843 843 843 843 844 843 843 843 842 842 842 842 842 843 843 842 843 844 844 844 845 845 846 846 846 847 847 847 848 848 849 849 849 850 850
804 805 807 809 811 812 813 814 815 816 817 819 820 821 822 824 825 826 827 828 829 830 831 832 833 834 835 835 835 836 837 837 837 837 838 838 839 840 840 841 842 843 843 843 843 843 843 841 840 840 841 841 841 841 841 841 841 840 840 839 839 839 839 839 839 839 839 840 841 841 842 842 843 843 844 844 844 844 845 846 846 847 847 847 847
800 802 804 806 807 808 809 811 812 813 814 816 817 818 819 821 822 823 824 825 826 827 828 829 830 831 832 832 832 834 834 834 833 833 834 835 836 837 837 837 838 839 840 839 839 840 840 838 837 837 838 838 838 838 838 839 838 837 837 836 836 835 835 835 835 835 836 837 837 838 839 839 840 840 840 841 841 841 842 843 843 844 844 844 844
797 799 800 802 804 805 806 808 809 810 812 813 814 815 816 818 819 820 821 822 823 824 825 826 827 828 828 829 829 830 830 829 829 830 832 833 833 833 833 834 835 836 836 836 836 837 836 835 835 834 834 835 835 835 835 836 836 834 834 833 832 831 832 832 831 832 833 834 834 835 836 836 836 837 837 837 838 838 839 839 840 840 841 842 842
793 795 796 798 800 802 803 804 806 807 809 810 810 812 813 815 816 817 818 819 820 821 822 823 824 825 825 825 826 826 826 826 826 827 829 830 830 830 830 831 832 832 832 833 833 834 833 833 832 832 831 832 832 831 832 833 832 830 829 830 829 827 828 828 828 829 830 831 831 832 832 833 833 833 833 834 834 834 835 836 837 837 838 839 839
790 791 793 795 797 798 799 801 802 804 805 806 806 808 810 811 812 813 814 815 816 817 819 820 821 821 821 822 821 821 822 822 823 824 825 827 827 827 827 828 829 830 830 830 831 831 831 831 830 830 830 829 828 829 829 828 826 825 826 828 826 824 825 826 825 826 828 828 828 828 829 829 829 829 829 829 830 831 832 832 833 834 835 836 836
787 788 790 792 793 794 795 797 799 800 801 801 802 804 806 807 809 810 811 812 813 814 815 817 817 817 817 817 817 818 819 820 821 821 822 823 824 824 824 825 826 827 827 828 828 829 829 828 827 828 827 825 825 825 824 823 823 823 824 824 822 822 824 824 822 822 825 826 826 825 824 825 826 825 825 825 825 827 828 829 830 831 832 833 834
784 785 787 788 789 790 791 793 794 795 796 797 798 800 802 803 805 807 808 809 810 811 812 813 813 813 814 814 814 815 816 816 817 818 818 819 819 820 821 822 823 823 824 825 825 826 826 825 824 824 824 822 821 822 821 820 821 821 820 821 821 821 823 822 820 819 820 822 823 821 820 821 822 821 820 820 821 823 823 824 826 827 829 830 830
781 782 783 784 784 786 788 789 790 791 791 793 795 796 798 800 802 803 804 806 807 808 809 809 809 810 810 810 811 811 812 812 813 814 814 814 815 816 817 818 819 819 820 821 822 822 822 822 820 820 820 818 817 817 817 817 817 817 818 819 820 820 820 820 818 816 816 818 820 819 816 816 818 817 815 816 817 818 818 819 822 823 825 826 826
777 778 779 780 780 782 784 784 785 786 787 789 791 793 794 796 798 800 801 803 804 805 805 806 806 806 806 807 807 807 808 809 810 810 809 810 811 812 813 814 814 814 815 816 817 817 818 817 816 814 814 815 813 811 813 814 814 815 816 816 816 816 816 815 813 812 814 816 819 818 813 812 814 814 811 811 813 814 814 815 817 818 820 821 822
773 773 774 775 776 777 779 780 781 782 783 785 787 789 791 792 795 797 798 800 801 802 802 802 802 802 803 804 803 803 803 805 806 806 805 806 807 808 808 808 808 808 809 810 811 812 812 813 812 808 808 811 809 807 809 811 811 811 811 811 810 810 810 808 808 810 813 814 816 816 810 807 810 810 807 806 808 809 809 810 812 813 815 816 818
766 767 769 770 771 772 774 775 777 778 779 781 783 785 787 789 792 794 796 797 798 798 798 798 799 798 799 800 799 798 799 800 801 801 801 802 803 803 803 803 802 802 802 804 806 806 806 806 805 803 803 805 805 804 805 807 806 805 805 805 804 805 805 805 805 809 811 811 813 813 806 802 805 805 801 801 804 804 804 806 807 808 810 811 812
761 762 764 765 766 767 769 771 773 773 774 777 779 781 783 786 788 791 792 793 794 794 794 794 795 795 795 795 795 794 795 796 796 797 797 799 799 799 798 798 798 797 796 798 801 800 800 800 799 798 799 800 801 799 799 800 799 799 800 799 799 801 802 802 803 805 808 808 808 808 803 798 799 800 797 797 799 798 798 800 801 802 804 806 807
756 757 758 759 760 762 764 766 767 767 769 772 775 777 779 782 785 786 788 789 790 789 789 790 790 790 790 790 790 790 791 791 792 792 793 795 795 794 794 794 794 792 791 794 796 794 795 795 794 794 794 794 794 793 792 792 792 794 796 794 792 795 797 798 800 803 805 804 801 801 798 792 791 793 791 791 792 791 791 792 794 796 798 800 802
750 751 753 754 756 758 759 760 761 763 765 768 771 773 775 778 780 782 783 784 785 784 784 785 786 786 785 785 786 786 786 786 787 788 789 791 790 789 789 790 788 786 787 791 791 789 789 789 788 789 789 788 787 785 783 783 784 788 790 786 784 789 795 798 802 804 802 795 789 789 788 783 781 783 783 783 783 781 781 784 786 789 792 794 796
745 747 749 751 752 753 754 756 758 760 762 764 767 769 771 773 775 777 779 780 779 779 780 781 781 780 780 780 780 781 781 782 783 784 785 786 785 784 785 785 782 781 784 787 785 784 786 785 784 784 783 782 782 779 775 775 778 782 782 779 781 788 793 796 797 796 788 777 772 777 777 773 773 774 774 775 774 771 771 775 778 781 785 787 790
Wind_Speed
10 9 7 6 5 7 7 7 6 5 4 3 4 4 4 4 3 3 3 4 5 5 4 4 3 2 2 4 6 9 9 9 7 6 6 7 9 9 9 9 9 8 8 7 6 6 6 5 5 5 5 5 6 6 6 6 6 6 6 6 5 5 4 4 3 2 2 1 0 1 1 1 2 2 3 4 4 5 5 6 7 7 8 9 9
10 8 8 6 5 6 6 6 5 5 4 3 4 5 5 5 4 3 3 4 5 4 4 3 3 2 3 3 5 8 10 9 8 7 6 7 9 9 9 9 9 8 8 7 7 6 6 6 5 5 5 5 5 5 5 5 5 5 5 5 5 4 3 3 3 2 1 1 1 1 2 2 3 4 4 5 5 6 6 7 8 9 9 10 10
10 8 8 7 6 6 6 6 5 4 4 4 5 5 5 5 5 4 4 5 4 4 4 4 4 2 2 1 2 6 8 9 9 8 7 7 8 10 10 9 9 9 9 8 7 7 6 6 6 6 6 5 5 4 4 4 4 4 4 4 3 3 3 2 2 2 2 2 3 3 3 4 4 5 5 6 6 7 8 9 9 10 10 10 10
11 9 8 8 7 7 7 7 6 5 5 5 5 5 5 5 5 4 4 4 4 3 4 5 4 2 1 2 3 5 8 9 9 8 7 7 8 10 10 10 10 9 9 8 7 7 6 6 6 6 6 6 5 5 5 4 4 4 3 3 3 3 2 2 2 2 3 3 3 4 4 5 5 6 6 7 7 8 8 9 9 10 11 11 11
12 10 9 9 8 8 8 7 6 5 5 5 5 5 5 5 5 4 4 3 3 3 4 5 4 1 1 2 4 5 7 9 9 9 7 8 9 9 10 11 10 9 9 8 8 8 7 6 6 6 6 6 6 6 5 5 5 4 4 4 4 3 3 3 3 3 3 3 4 4 4 5 5 6 7 7 8 9 9 9 10 11 11 12 12
12 11 10 10 9 9 8 7 6 6 6 6 6 6 5 4 4 4 4 2 2 3 4 4 2 1 1 3 3 4 7 9 9 9 8 8 8 8 9 10 11 10 10 9 9 8 8 7 6 6 6 6 7 7 6 6 5 5 5 5 5 5 4 4 4 4 4 4 5 5 5 6 6 7 8 8 9 9 10 11 11 10 11 11 11
13 12 11 11 11 10 9 8 7 6 6 6 7 6 5 4 4 4 3 2 2 3 4 3 2 1 1 1 2 3 6 9 10 9 8 7 7 7 8 9 10 11 10 10 9 9 9 8 7 6 6 6 6 7 7 7 7 7 6 6 6 6 5 5 5 5 5 5 6 6 6 7 7 7 8 9 9 10 11 11 11 10 11 11 11
13 13 12 12 12 10 9 9 8 7 7 6 7 7 5 4 4 4 3 2 2 4 3 4 4 2 1 2 4 4 6 9 10 9 8 7 6 7 8 8 9 9 10 10 10 9 9 8 7 7 6 6 7 7 8 8 8 8 8 7 7 7 7 7 7 7 7 7 8 7 7 7 8 8 8 10 10 11 11 11 10 11 11 11 11
13 13 13 12 12 11 9 9 8 8 8 7 7 7 6 5 5 5 3 2 2 3 3 3 4 2 1 4 7 7 8 10 10 8 7 7 7 7 6 6 7 8 9 9 9 10 9 9 8 7 7 7 7 8 8 8 8 9 9 9 8 8 9 8 8 8 8 9 9 9 7 8 9 9 9 10 10 11 11 10 10 10 11 10 10
14 14 14 13 12 12 11 10 9 9 8 7 6 7 6 6 6 5 4 3 2 1 3 4 4 3 2 5 8 9 10 11 9 7 7 7 7 7 6 5 6 6 6 7 8 9 9 9 9 8 8 8 8 8 8 8 8 9 10 9 8 9 9 9 8 8 8 9 9 9 8 8 9 9 9 10 10 10 10 10 9 9 9 9 8
15 15 15 14 13 13 12 11 10 10 9 8 7 7 7 7 6 6 5 4 1 1 3 4 5 4 4 7 9 11 11 10 8 7 7 7 7 6 6 6 5 5 5 6 7 8 8 9 9 9 9 9 8 9 9 10 9 9 10 9 8 8 9 8 8 7 7 7 8 7 8 9 9 9 10 10 10 9 9 8 8 7 7 7 7
17 16 16 15 14 13 12 12 12 11 10 9 8 8 7 8 7 7 6 5 2 0 2 5 6 6 7 10 12 12 12 10 8 8 7 7 6 6 6 6 6 5 4 5 7 7 7 8 9 9 9 9 9 9 10 10 10 10 10 9 8 8 8 8 8 7 6 6 7 7 7 8 9 9 10 9 8 7 6 6 5 5 6 7 7
19 18 17 16 15 14 13 13 13 12 11 10 9 8 8 8 8 7 7 5 3 0 2 7 9 8 7 9 11 11 12 10 9 9 8 7 6 6 6 6 6 5 4 4 5 6 6 8 8 9 9 10 10 10 10 10 10 10 9 9 8 8 8 7 7 7 6 6 6 6 7 8 7 7 7 6 5 3 3 3 4 5 6 7 7
21 20 19 18 17 16 14 14 13 13 12 10 9 8 9 9 8 8 8 7 4 2 5 9 9 9 9 7 4 6 9 10 11 10 9 9 8 7 7 6 6 5 5 5 5 5 5 7 7 8 9 9 10 10 10 10 9 10 9 9 8 8 8 8 7 6 6 6 6 6 7 7 5 4 3 2 1 2 2 3 4 4 5 6 7
22 22 21 20 19 18 16 15 14 13 12 11 10 10 10 10 9 9 8 8 6 5 8 8 8 12 11 5 2 2 3 8 11 12 12 11 10 9 8 7 6 5 6 5 5 5 5 6 7 7 8 8 9 10 10 10 9 9 9 9 9 8 8 7 7 7 6 6 6 6 6 5 3 2 1 1 1 2 3 3 3 4 5 6 7
22 22 23 22 21 20 18 16 14 14 13 12 11 10 10 11 10 10 9 10 7 7 11 9 8 12 9 3 1 2 1 6 10 12 13 13 12 11 10 9 8 7 6 5 5 5 5 6 6 7 7 7 8 8 9 9 9 9 9 9 9 9 8 7 7 7 7 6 6 5 4 3 2 0 1 2 2 2 2 3 4 5 6 7 7
21 21 23 23 21 20 19 17 15 14 14 13 12 10 10 11 11 10 10 10 7 7 12 10 9 12 9 4 2 1 2 4 6 7 12 16 15 14 12 11 10 8 7 6 6 5 5 6 6 6 7 7 7 7 8 8 8 9 9 9 9 9 8 8 7 6 6 5 5 3 3 2 1 1 1 1 1 1 2 3 4 6 6 7 7
22 21 21 22 21 21 20 19 17 16 15 13 12 11 11 11 11 11 11 10 8 7 10 10 9 11 10 6 3 2 4 6 4 1 7 14 16 16 15 13 12 11 9 7 7 7 6 6 7 7 7 7 7 7 7 8 8 8 8 8 8 8 7 8 7 6 6 5 4 3 3 2 1 1 0 0 1 1 2 4 5 6 6 7 8
24 23 21 21 21 21 21 20 18 17 16 15 14 13 12 11 10 11 11 11 10 9 10 10 11 11 9 7 3 2 7 9 5 3 2 6 12 16 17 16 15 13 12 10 9 8 8 8 8 8 7 7 7 7 7 8 8 8 7 7 8 8 7 7 7 7 6 5 4 3 3 2 2 1 1 1 1 2 3 4 4 5 6 7 8
27 25 23 21 20 21 22 22 21 19 18 17 15 13 12 12 11 12 13 13 12 11 11 11 12 12 10 10 6 3 7 10 9 8 5 1 5 10 14 17 17 16 15 13 12 10 9 9 9 8 9 9 8 7 6 7 8 7 7 7 7 7 7 7 7 7 6 6 5 5 4 3 3 2 2 1 0 1 3 4 5 6 7 8 9
28 27 24 22 21 21 22 23 23 21 20 18 16 14 13 13 13 14 14 14 13 12 12 12 12 13 12 11 8 4 5 8 10 10 6 3 2 4 10 13 15 19 19 16 15 13 11 10 10 10 10 10 9 8 7 7 6 6 6 6 6 7 7 7 7 7 7 7 6 6 5 4 4 3 3 2 2 2 4 5 6 8 9 10 11
29 28 27 24 22 21 22 24 24 23 22 19 18 16 14 14 13 14 15 16 15 14 13 13 13 14 14 13 10 7 5 6 8 9 6 4 3 4 11 13 13 18 22 20 19 16 15 13 12 12 12 11 11 10 9 8 7 6 6 6 7 8 8 8 8 8 7 8 7 7 6 6 5 4 4 3 4 4 5 7 8 9 10 11 12
29 29 29 26 24 22 21 23 24 24 23 21 19 17 15 14 14 14 16 17 17 16 15 13 13 14 15 15 14 11 9 7 9 12 9 6 4 4 11 16 15 18 20 21 22 19 17 17 15 14 13 13 12 12 11 11 10 8 8 8 9 9 9 9 9 8 8 9 8 8 7 7 6 6 5 6 6 6 7 8 10 10 11 12 12
29 30 30 28 26 23 22 22 24 24 24 22 20 18 16 15 15 15 16 17 18 18 17 16 15 15 17 18 16 15 14 11 11 15 15 13 11 8 11 14 13 16 19 19 21 23 21 20 19 18 16 14 14 13 13 12 12 10 10 11 11 10 10 10 9 9 9 9 9 8 8 8 8 7 7 8 8 8 9 10 10 11 12 12 12
30 32 32 30 27 25 24 23 23 24 24 22 21 19 17 16 16 16 16 18 19 19 19 18 17 17 18 18 17 17 17 14 12 14 16 16 14 11 12 12 10 14 18 17 19 22 24 24 22 20 19 18 16 15 14 14 13 12 11 12 13 12 11 11 10 10 9 9 9 9 9 9 9 9 9 10 10 10 10 11 11 12 12 12 12
32 33 32 31 28 26 25 24 23 23 23 23 21 20 19 18 17 17 17 19 19 20 21 20 19 18 18 18 18 18 18 16 14 14 15 15 14 12 11 9 8 10 12 15 17 18 22 25 25 23 22 21 19 17 17 16 15 14 13 13 14 14 13 12 12 11 11 10 10 10 11 11 10 11 11 11 12 12 12 12 12 12 11 11 12
32 32 32 31 29 27 25 24 23 23 23 23 22 21 20 19 18 18 18 19 20 21 22 21 21 20 19 18 17 17 18 17 16 16 17 17 15 14 12 7 4 5 6 10 14 19 23 23 23 25 25 23 23 21 19 18 17 16 15 15 15 15 14 14 14 13 13 13 13 13 13 12 12 12 13 13 13 13 13 13 13 12 11 12 12
33 31 31 31 30 28 27 25 24 24 24 23 23 22 21 20 20 19 19 20 21 22 22 23 23 21 21 20 19 19 18 18 18 18 18 18 16 15 15 12 7 3 3 4 7 15 22 23 22 25 26 25 25 24 22 22 20 18 18 18 17 16 16 16 16 15 15 15 15 15 15 15 15 15 15 15 15 15 15 14 13 12 11 12 12
34 32 31 31 30 29 28 27 26 25 24 24 24 23 23 22 22 22 21 21 21 22 23 23 23 22 22 22 22 22 21 19 20 20 20 20 18 16 16 16 13 7 2 3 5 11 17 21 23 23 24 25 26 26 26 25 23 22 21 21 21 19 18 18 18 18 17 17 17 17 17 17 17 17 17 17 17 16 16 15 13 12 12 12 13
35 33 32 31 31 30 29 28 27 26 26 25 25 24 24 24 24 24 23 22 22 23 23 23 23 23 23 23 23 24 23 22 22 21 21 21 21 20 18 17 17 13 8 5 6 12 17 20 23 24 23 23 24 25 27 27 26 25 24 24 24 23 21 20 20 20 20 20 19 19 19 19 19 18 18 18 18 18 17 16 14 13 12 13 13
35 34 33 32 31 31 30 30 29 28 27 27 27 26 26 26 26 26 25 24 24 24 24 24 24 24 24 24 25 26 25 24 23 22 22 22 23 22 20 19 20 19 17 11 5 12 18 19 21 24 23 23 22 23 25 26 27 27 27 27 27 26 24 23 22 22 22 22 22 22 21 21 21 21 20 20 20 20 19 18 16 14 14 13 13
35 34 34 33 32 31 32 32 31 30 29 28 28 28 28 28 27 27 27 26 27 26 26 25 25 25 26 26 26 26 26 26 26 24 23 22 23 23 22 21 22 22 22 17 10 14 21 20 20 21 21 23 24 24 25 26 26 28 29 29 29 28 28 27 25 24 24 24 24 24 24 23 23 22 22 22 21 21 21 19 17 16 16 14 13
35 35 35 34 33 32 32 32 32 32 31 30 30 30 30 30 29 28 28 28 29 28 28 27 26 27 27 28 27 27 27 27 27 27 25 24 24 25 23 22 23 23 23 21 17 17 22 22 20 20 20 21 23 25 25 26 27 28 29 30 30 30 30 29 28 26 25 25 25 26 25 24 23 23 22 22 22 22 22 20 19 19 18 16 14
35 35 36 35 35 34 33 33 33 33 33 32 32 31 31 31 30 30 30 30 30 30 30 30 29 29 29 29 29 28 27 28 29 28 28 28 27 27 26 25 25 24 23 24 22 19 21 24 23 22 21 22 23 25 25 26 27 27 29 30 31 31 32 31 30 29 27 26 26 27 26 25 24 23 23 22 22 22 22 21 21 20 19 17 15
34 35 36 36 36 35 35 34 34 34 34 34 33 33 32 32 31 31 31 31 32 32 32 32 32 31 30 31 32 31 29 29 31 31 31 31 31 31 30 28 27 27 25 25 25 23 23 26 26 24 23 24 25 26 26 26 26 26 28 30 31 32 32 32 32 31 29 28 28 27 27 26 25 25 24 23 22 22 22 22 22 22 21 19 16
33 35 35 35 36 36 35 36 36 36 36 35 35 34 34 33 32 33 32 32 33 33 34 34 33 32 32 33 33 33 32 31 32 32 32 33 33 33 33 31 30 30 28 26 27 28 26 26 27 28 26 25 26 26 26 27 27 27 29 30 31 33 33 33 33 33 31 30 29 28 28 27 27 27 26 25 24 24 23 23 22 22 22 21 18
34 34 34 35 35 36 36 37 37 38 37 37 36 36 35 35 34 34 34 34 34 34 35 34 34 34 33 34 35 34 33 33 34 34 34 34 34 34 35 34 33 32 31 29 29 30 29 28 30 30 28 26 27 27 27 27 28 29 29 30 32 33 34 35 35 34 33 32 30 30 29 29 28 28 28 27 26 25 25 24 23 23 23 23 21
36 35 34 35 35 36 38 38 39 39 38 38 37 37 37 36 35 35 35 35 35 35 35 35 35 35 35 36 36 34 34 35 37 37 36 35 35 35 35 36 36 34 33 33 31 30 31 32 32 31 29 28 28 28 28 28 29 30 30 31 33 34 35 36 37 36 35 35 33 32 30 30 29 29 29 29 28 27 26 25 24 24 24 24 23
36 36 35 35 36 37 38 39 39 39 38 38 38 38 37 36 36 36 36 36 36 36 36 36 35 36 36 37 36 36 36 37 38 38 37 36 36 36 36 36 35 34 34 35 34 31 31 32 31 31 31 30 29 29 29 28 28 31 31 31 32 35 37 38 39 38 37 37 36 34 33 32 31 30 30 30 29 28 27 27 26 25 24 24 24
37 37 37 36 36 37 38 39 39 39 38 38 39 38 38 37 36 37 37 37 36 36 36 36 36 36 37 37 38 38 39 39 40 39 37 36 36 36 38 37 34 33 33 34 33 32 31 31 30 31 31 29 29 29 28 26 26 31 33 31 32 35 36 37 39 39 38 39 38 36 35 34 33 33 32 31 31 29 28 28 28 27 26 25 25
38 38 38 37 36 37 38 39 39 39 38 39 40 40 39 38 37 38 37 37 37 37 36 35 35 36 37 38 39 40 40 41 41 40 40 38 37 37 38 37 35 34 33 32 31 30 30 28 28 29 28 27 28 28 27 28 30 33 33 30 33 37 35 34 37 38 38 38 38 38 37 36 36 36 35 34 33 31 30 29 29 28 27 26 26
38 38 38 37 37 37 38 38 39 39 39 40 41 41 41 40 39 38 37 38 37 36 36 35 35 36 37 39 40 41 41 41 41 42 42 41 40 40 40 38 36 35 33 31 30 30 28 27 28 28 25 26 29 30 31 33 34 33 31 29 32 36 31 28 33 38 38 37 36 38 39 39 37 37 38 37 35 33 32 31 31 30 28 27 27
38 38 37 37 38 39 38 38 39 39 40 41 42 43 43 42 41 39 38 38 37 36 36 35 36 36 37 38 39 39 39 40 41 42 43 44 43 43 43 42 40 39 36 33 31 31 29 28 29 28 25 27 32 33 33 34 33 33 33 31 30 30 26 23 25 30 35 35 34 36 40 40 38 38 40 39 37 35 35 33 32 31 29 27 27
38 37 37 38 39 39 38 39 39 40 41 42 42 43 43 43 43 41 39 37 36 36 36 36 37 37 36 37 37 38 39 39 40 41 42 44 45 45 45 45 45 44 42 39 37 34 32 31 31 31 29 30 33 34 34 35 34 33 31 30 29 28 27 25 24 28 33 32 27 31 38 40 37 37 40 41 39 38 36 35 33 31 29 28 27
37 37 38 38 39 39 38 39 40 40 41 42 42 43 43 44 44 43 41 39 36 35 35 36 37 37 37 36 36 37 39 38 39 40 41 43 43 43 44 45 46 47 47 46 45 42 39 36 34 34 35 34 35 38 38 36 34 31 28 29 30 30 30 30 32 35 34 28 23 24 31 36 34 33 37 40 40 39 38 37 34 32 30 29 27
37 38 38 38 39 39 39 40 40 40 41 42 42 42 43 44 43 42 42 40 37 36 36 36 37 37 37 36 36 38 38 37 37 39 40 41 41 40 41 43 46 48 48 49 49 48 47 43 40 41 42 39 39 43 41 37 33 32 32 32 33 34 34 36 38 36 31 27 25 22 27 33 31 30 36 39 38 39 39 38 37 34 31 30 29
39 40 39 39 39 40 40 40 40 40 42 42 41 42 43 43 42 41 41 41 39 39 38 38 38 38 37 37 38 39 39 37 37 38 39 39 39 39 39 40 43 45 47 47 47 49 50 49 48 50 49 45 44 46 44 40 38 38 38 38 38 36 34 33 33 31 28 28 28 23 25 32 31 28 35 39 36 37 38 37 37 36 33 31 30
40 39 39 40 40 41 41 40 39 40 42 41 41 41 42 41 40 40 40 40 40 40 41 40 39 39 39 38 39 40 39 39 39 40 40 39 38 38 38 39 40 42 44 43 43 46 48 49 51 52 51 50 48 49 48 45 42 41 39 38 37 31 28 27 26 25 26 28 31 29 28 33 31 28 34 37 34 35 38 37 36 36 34 32 31
38 38 39 40 40 40 40 39 40 41 41 40 40 40 40 38 38 38 39 40 40 41 42 42 41 40 41 41 41 40 40 40 40 41 40 39 39 39 38 37 38 40 41 38 38 42 44 45 49 50 51 52 52 53 54 51 49 45 37 35 35 30 26 23 19 19 23 28 33 33 30 34 34 32 35 37 34 35 37 36 36 36 33 33 33
39 39 39 38 39 39 40 41 41 41 40 40 39 39 38 37 36 36 38 39 40 41 41 41 41 42 43 43 43 42 42 42 41 41 41 39 40 40 39 37 37 39 37 32 33 38 40 42 45 45 47 50 51 54 56 56 55 49 41 41 41 31 23 19 16 19 24 32 40 37 32 35 38 34 33 31 29 35 39 36 35 35 33 33 34
39 38 37 36 37 38 39 40 40 39 39 39 38 38 38 37 36 36 36 37 39 40 39 39 40 41 43 44 44 44 45 45 44 43 42 41 41 42 40 37 37 37 34 32 35 37 35 37 40 42 44 47 48 52 55 56 56 52 49 50 44 27 20 23 25 21 19 29 43 40 34 36 37 35 33 23 15 25 36 37 35 35 35 35 36
Wind_Direction
182 179 183 189 185 181 180 182 188 194 199 192 187 188 189 189 187 186 187 177 167 169 183 200 213 240 297 286 251 235 231 233 232 217 211 210 199 192 196 193 187 180 177 181 176 170 168 163 159 152 147 138 137 138 137 137 137 139 139 139 140 141 144 142 142 140 140 141 72 330 333 339 337 335 329 330 331 333 335 332 331 331 328 328 331
187 186 187 194 195 188 183 182 189 200 206 202 195 198 200 201 202 198 203 198 184 184 199 218 229 275 319 293 237 226 225 231 237 229 220 218 205 193 195 197 193 187 184 186 185 177 173 176 177 170 164 155 150 148 146 149 149 149 148 148 147 149 156 160 167 178 189 223 267 289 303 307 310 308 307 315 320 323 326 326 327 329 328 329 331
195 197 196 199 202 191 183 179 179 186 193 195 192 201 205 204 208 203 207 211 207 212 219 226 235 274 308 263 220 218 218 226 235 233 226 224 213 198 194 197 197 195 190 192 193 183 179 186 187 181 179 176 171 165 161 163 164 163 161 162 164 168 183 193 205 231 241 254 273 286 296 295 297 301 305 312 315 318 321 323 326 328 326 325 327
204 206 205 205 206 197 190 183 176 172 177 183 185 197 204 207 213 211 211 213 215 230 234 228 227 249 295 254 254 230 216 220 230 232 227 223 217 207 200 196 197 202 198 195 196 189 189 196 193 187 189 192 189 185 185 185 188 188 188 192 199 207 221 240 253 263 263 271 284 287 289 287 291 302 307 310 311 314 316 319 322 322 319 320 322
209 208 208 210 209 202 195 188 181 181 183 183 182 187 197 206 213 218 218 217 217 223 221 218 225 251 280 258 258 234 218 218 226 229 223 218 213 210 209 202 196 201 202 198 199 196 197 202 198 194 195 201 203 202 203 203 207 210 215 220 226 233 241 254 258 262 269 275 286 290 289 288 291 298 300 304 309 310 313 316 318 319 319 321 322
211 210 210 211 210 205 197 187 181 178 181 181 181 183 190 197 204 212 209 194 197 200 196 201 218 284 270 261 252 231 217 214 223 226 217 212 210 209 212 208 200 200 201 201 203 201 202 205 201 201 203 206 210 212 216 219 221 223 227 231 236 242 245 254 260 263 268 277 284 288 288 289 291 295 300 307 309 310 315 318 318 320 321 322 323
210 210 211 211 208 207 197 184 178 172 172 177 181 186 189 190 198 209 203 182 188 182 173 166 152 130 126 238 235 227 212 209 221 224 213 208 209 212 214 210 205 204 205 206 207 206 206 208 206 209 213 215 218 217 221 227 230 232 235 238 243 247 251 255 262 265 269 275 277 280 284 289 292 296 302 306 307 310 314 317 319 321 321 321 322
207 210 212 211 207 207 199 188 184 180 182 186 189 192 194 194 200 207 204 196 186 175 163 150 151 150 131 189 200 191 190 204 219 222 210 206 208 213 217 214 210 209 211 212 212 212 212 212 211 216 220 225 229 225 225 228 235 238 238 241 245 250 256 258 261 264 268 273 274 277 281 285 292 298 302 304 307 310 312 314 318 321 321 322 322
207 210 212 211 208 208 205 198 194 191 196 202 200 198 201 203 201 203 211 204 187 189 183 160 165 190 238 211 195 173 177 197 215 221 210 203 204 206 211 212 210 211 215 216 216 217 219 218 214 218 227 231 234 237 236 235 239 245 245 245 246 249 255 258 263 266 268 273 278 282 281 283 290 297 301 305 307 309 311 313 316 321 323 325 325
207 211 212 211 211 212 211 209 206 200 203 209 205 202 205 210 209 215 221 207 205 238 200 168 165 189 218 198 184 172 181 199 210 215 209 203 203 202 203 205 207 208 210 213 218 222 226 224 218 219 228 232 234 240 245 246 246 249 255 255 254 254 256 260 267 271 270 273 281 285 286 287 292 298 301 304 307 306 308 311 315 321 325 327 329
209 211 211 211 212 213 214 215 215 210 209 210 208 211 211 210 214 221 221 212 238 298 188 162 146 161 168 164 172 177 184 198 206 205 203 205 207 206 203 202 207 211 208 210 216 223 228 227 222 222 231 236 236 239 243 247 247 249 258 265 266 264 262 266 273 276 276 280 285 288 292 291 293 298 301 303 303 300 301 307 314 319 324 329 333
213 214 212 212 214 215 216 218 220 218 216 218 216 220 216 209 210 210 213 216 222 340 171 166 152 155 162 163 172 182 187 195 201 199 200 205 210 210 207 208 212 214 211 213 216 220 225 229 229 229 235 239 238 241 244 248 249 251 259 266 269 267 265 268 273 276 278 283 287 289 291 289 290 292 294 297 297 297 303 310 322 330 339 350 354
217 217 214 215 217 218 219 220 223 223 225 228 225 226 215 208 207 202 207 211 212 279 142 156 151 143 153 169 177 186 193 201 203 203 203 203 208 213 214 217 218 215 213 216 217 220 224 230 238 240 242 243 243 245 248 252 253 255 261 265 269 270 270 270 271 272 275 280 284 286 289 288 288 288 288 292 295 304 326 340 355 1 4 10 12
221 220 217 218 219 220 221 222 225 224 227 230 226 226 216 208 207 203 201 193 200 219 156 150 147 148 150 151 164 193 205 212 212 213 212 208 213 218 221 224 221 214 213 216 216 218 227 235 241 245 245 245 246 249 252 254 255 257 262 264 264 265 269 270 269 271 272 276 277 275 282 286 285 282 277 277 300 353 17 22 22 21 18 17 17
222 223 220 220 222 222 221 222 225 225 224 224 224 225 219 211 208 207 198 184 189 200 182 166 149 148 145 137 156 187 227 237 229 225 221 217 221 223 224 226 225 219 214 216 213 213 224 235 239 242 244 246 247 252 256 255 256 260 264 263 258 256 259 263 266 267 264 264 265 265 272 278 275 268 240 104 65 46 40 36 28 25 21 18 19
221 223 223 222 224 224 222 222 223 225 225 223 224 224 218 210 207 209 200 188 187 189 192 198 176 156 141 97 109 129 256 251 233 232 231 226 226 226 227 228 227 223 216 210 207 213 226 232 239 243 244 249 251 253 257 257 256 256 257 258 255 253 254 255 256 256 254 253 254 255 255 254 244 207 94 77 62 52 35 27 22 18 19 20 22
220 221 223 225 225 224 223 222 221 223 225 225 227 227 220 211 208 209 202 195 194 188 193 212 213 190 173 134 110 160 235 205 198 231 236 229 228 227 227 230 230 227 220 212 207 214 230 236 237 239 240 244 248 250 248 246 249 251 252 253 254 252 250 251 251 250 248 239 235 231 226 220 194 139 90 66 37 28 16 12 13 14 18 20 19
221 220 222 225 226 224 223 222 222 223 226 228 229 229 224 218 213 210 206 202 203 199 200 208 208 199 188 174 173 215 193 159 141 212 234 231 234 232 230 231 231 231 225 221 219 218 230 239 236 234 234 234 235 239 238 236 240 248 255 254 254 251 245 247 250 246 237 222 219 220 215 213 189 166 150 72 354 2 7 9 12 13 11 7 4
223 221 222 224 226 225 224 224 224 224 228 230 230 229 227 224 221 216 211 209 211 213 213 209 198 199 205 205 220 226 182 170 160 154 187 237 239 233 232 231 230 232 230 228 228 228 232 237 238 238 232 226 226 231 235 236 235 240 245 246 249 249 242 241 239 229 219 211 213 218 215 219 214 212 221 230 336 7 9 5 2 358 354 350 346
225 224 222 224 226 227 226 226 226 226 229 231 231 230 229 226 223 221 218 214 216 219 224 223 211 210 218 220 239 253 195 189 183 168 143 199 243 234 232 232 231 231 230 231 230 231 234 235 237 240 235 229 229 234 235 229 227 231 234 236 240 241 234 226 220 213 209 208 211 215 219 219 216 215 212 207 328 349 343 338 341 340 338 337 334
226 225 224 224 226 227 227 226 227 227 228 232 233 232 231 229 225 224 221 218 218 222 229 234 228 222 221 221 230 236 212 212 201 183 160 156 205 228 220 225 235 233 230 230 230 230 232 233 236 240 239 238 238 238 234 224 221 226 230 231 229 227 220 212 211 212 213 214 213 215 219 216 212 214 215 228 270 299 315 322 326 327 326 327 326
224 224 224 223 225 228 228 227 227 228 229 232 234 234 234 233 230 226 224 221 221 223 229 236 238 235 227 220 224 226 213 213 207 196 181 172 187 213 206 206 223 231 229 229 230 229 230 231 234 239 241 240 240 240 235 230 231 231 227 224 220 217 214 212 213 215 219 221 217 216 219 220 223 228 238 254 274 293 306 312 313 316 319 318 315
223 223 223 223 225 228 230 229 228 230 232 234 235 235 236 236 235 232 229 227 225 226 230 235 240 239 233 228 231 235 227 219 213 203 193 187 183 197 209 208 217 229 230 231 231 230 231 232 232 236 241 241 239 238 236 236 235 231 226 223 221 219 217 217 216 216 222 225 222 222 224 227 234 242 254 267 279 291 298 303 306 309 309 306 304
221 222 222 222 224 227 229 229 229 230 232 235 236 236 238 239 239 237 236 234 230 230 232 234 238 237 234 233 240 245 237 236 234 214 204 205 200 195 205 207 218 234 235 235 235 233 232 234 234 236 239 241 240 237 237 238 236 233 231 229 226 224 223 223 223 221 224 228 228 229 232 236 243 251 261 270 279 288 294 298 301 302 300 299 299
218 220 221 221 222 225 229 229 229 230 232 234 236 236 237 239 239 238 237 235 232 231 232 234 237 238 236 236 244 247 236 236 243 225 213 211 205 202 204 202 215 234 236 237 238 236 235 236 238 239 240 242 243 241 239 238 237 236 237 237 233 230 229 228 229 229 229 232 235 236 240 244 250 258 266 273 280 287 291 294 295 295 296 297 301
219 220 221 220 222 226 230 233 233 232 232 234 236 237 237 238 240 239 237 235 233 231 233 235 238 240 239 238 243 243 231 230 240 234 226 219 211 205 199 200 227 237 235 236 236 235 236 238 239 239 241 243 243 244 243 240 238 237 238 241 238 234 234 234 234 236 235 237 241 244 248 252 257 263 269 274 280 285 288 290 291 292 295 300 303
222 222 221 220 223 226 230 234 235 234 233 234 236 237 237 237 240 242 240 237 235 234 235 237 239 240 238 238 242 239 230 231 238 239 236 232 228 221 203 186 227 257 243 235 233 234 237 239 240 240 241 244 245 245 246 245 243 240 239 242 242 239 238 238 238 241 243 243 246 248 251 254 258 263 268 273 277 281 284 285 287 292 297 301 302
224 223 222 222 223 227 230 233 236 235 233 234 237 238 238 238 239 241 242 240 238 237 238 238 240 241 239 239 241 239 237 239 242 241 238 237 238 236 223 206 202 233 274 256 242 242 242 240 241 242 243 244 246 246 247 248 247 244 241 242 244 243 243 241 240 242 247 249 250 251 252 253 255 259 263 267 271 275 278 281 284 290 296 299 299
225 225 224 224 225 228 231 234 236 236 234 233 236 238 240 240 240 240 240 241 241 240 239 239 241 244 243 242 242 242 243 244 245 244 241 241 240 239 238 230 220 208 213 253 249 246 244 241 240 244 246 245 247 248 248 249 250 247 244 244 245 247 247 247 245 246 248 250 252 254 255 255 256 258 260 262 265 269 273 276 280 285 291 295 296
225 226 227 226 226 229 233 235 236 237 235 234 235 237 240 242 242 242 241 241 244 243 241 241 243 245 247 246 245 244 245 246 246 245 244 244 243 242 244 242 235 225 215 221 252 253 248 244 243 247 250 249 249 249 250 252 252 251 248 247 247 248 250 250 251 251 252 253 254 255 257 258 257 258 261 262 262 264 266 270 273 277 285 292 294
224 226 227 227 228 230 233 236 236 236 236 235 235 236 238 241 243 244 244 243 244 245 244 244 245 246 248 249 248 246 246 246 247 248 247 245 244 245 246 245 242 240 235 226 244 261 254 250 252 254 254 254 254 253 254 255 256 254 251 250 251 252 252 252 254 255 255 255 255 256 258 259 259 259 261 263 263 261 262 264 267 270 278 287 292
224 225 227 229 230 231 233 235 235 235 236 236 237 237 237 240 242 244 245 244 245 246 247 247 247 247 248 249 249 249 248 247 246 248 249 247 244 245 249 252 250 251 247 234 230 259 259 257 261 261 258 257 256 256 257 259 259 257 255 254 254 254 254 254 255 255 255 255 254 255 258 259 259 259 260 263 263 260 258 258 261 265 272 282 288
223 224 227 230 231 232 232 233 234 235 237 237 238 237 237 238 241 243 245 245 245 247 247 248 249 248 248 249 250 250 249 249 248 248 248 247 247 247 250 256 257 257 252 239 234 253 263 260 259 259 258 256 255 255 258 259 259 258 257 256 255 254 254 255 256 256 255 254 252 253 255 257 257 257 258 261 261 259 256 255 258 262 267 275 282
223 224 226 229 231 231 231 233 235 236 238 239 238 237 236 236 238 241 242 243 244 245 246 247 248 248 248 248 250 251 251 251 251 250 248 247 248 250 252 255 258 260 258 248 240 247 261 262 258 256 255 254 254 256 256 257 259 258 257 257 255 254 254 254 256 257 256 255 253 253 253 255 256 256 256 257 258 257 254 253 255 259 264 270 276
224 225 227 229 230 230 231 233 235 236 237 239 238 237 236 236 236 238 239 240 241 242 242 245 246 247 246 247 249 250 250 251 252 252 251 250 249 252 253 254 256 259 260 254 247 245 254 263 263 259 256 254 255 257 258 258 259 259 258 258 257 255 255 255 255 257 258 257 256 255 254 254 256 256 257 256 256 256 255 253 254 257 262 267 270
224 226 227 229 229 229 230 232 234 236 236 237 238 237 237 237 237 237 238 238 239 240 241 243 244 244 244 245 247 249 248 249 251 252 252 252 251 251 253 254 254 255 258 257 252 247 249 257 262 262 260 258 258 259 259 259 259 258 259 259 257 255 254 255 256 258 260 260 259 258 256 256 257 258 258 257 257 257 255 252 252 255 260 263 265
224 226 226 227 228 228 230 232 234 235 235 236 236 237 237 238 238 239 238 238 238 240 241 242 243 243 243 244 246 247 246 246 248 250 250 251 251 250 251 252 252 253 254 256 255 251 247 249 256 260 260 260 260 261 259 258 259 259 259 258 256 254 253 254 255 257 260 261 260 259 258 256 257 258 258 257 257 257 254 250 251 254 258 260 261
223 224 225 225 226 228 230 232 234 234 235 235 235 236 236 237 237 238 239 238 239 240 241 241 242 243 243 245 246 245 244 244 246 248 249 249 249 250 250 250 251 251 251 252 254 252 248 248 252 256 257 256 258 260 260 259 258 258 258 257 255 252 251 252 253 255 257 258 258 258 257 256 256 257 256 255 256 255 252 248 249 253 255 257 258
223 223 224 225 226 228 231 232 233 235 235 235 235 236 235 235 236 237 238 238 239 240 241 241 242 243 244 246 247 246 245 245 246 247 247 247 248 250 251 251 250 249 248 249 250 249 248 249 251 254 256 256 256 258 260 259 257 256 255 252 251 251 249 249 251 253 255 256 257 257 258 258 258 258 257 256 255 254 250 247 247 250 252 254 255
223 224 224 225 226 228 230 232 234 235 234 235 236 236 236 235 235 236 237 237 238 239 240 241 242 243 245 246 247 247 247 247 248 249 248 247 247 248 250 251 250 249 248 247 247 246 246 247 250 254 256 257 256 256 256 252 248 250 249 245 247 251 250 250 252 254 255 256 257 258 258 258 258 258 256 255 253 251 249 247 247 250 252 253 253
224 225 225 226 227 228 230 232 234 235 234 235 236 236 236 235 235 236 237 237 238 238 239 241 242 243 244 246 247 248 249 250 251 251 251 250 248 248 251 250 249 248 248 247 246 245 245 247 250 253 256 257 256 255 252 245 243 248 249 244 245 250 252 254 255 256 256 256 257 258 259 258 258 258 257 254 253 250 247 246 246 249 253 253 252
225 225 226 226 227 229 231 232 233 234 235 236 237 237 237 236 236 236 236 237 238 238 239 240 241 242 244 246 248 250 250 251 253 254 254 254 252 252 254 253 250 248 247 246 246 245 245 247 249 251 252 254 255 253 252 252 251 251 250 244 244 249 252 255 258 258 257 256 255 256 259 259 258 258 258 257 256 253 249 247 247 249 253 253 251
225 226 226 226 227 229 231 233 234 234 235 237 238 238 239 238 237 236 236 238 238 238 239 240 241 243 244 246 248 250 251 252 253 255 256 256 255 255 256 255 254 252 248 246 246 246 245 246 250 251 250 253 256 255 255 257 256 253 250 247 245 248 248 249 257 261 259 256 253 253 258 260 257 256 257 257 258 257 253 252 251 252 253 252 251
225 226 226 226 228 230 231 233 235 236 237 238 239 239 240 240 239 237 237 238 238 238 239 241 243 244 245 247 248 249 251 251 252 254 255 256 257 257 257 257 257 256 253 250 249 248 246 246 249 250 249 252 257 257 256 256 256 255 253 250 247 247 246 245 249 255 259 259 253 250 255 260 257 254 255 257 257 258 257 256 254 252 252 251 249
224 226 227 227 229 230 231 233 235 237 239 240 240 241 241 241 241 239 238 238 238 240 240 242 244 245 246 247 248 249 251 251 252 253 254 255 256 257 257 258 257 257 256 254 253 252 251 249 250 252 252 253 255 258 258 257 256 255 253 250 248 246 244 245 248 252 256 258 255 251 256 260 258 255 256 258 258 257 257 257 255 252 251 249 249
223 225 227 228 230 231 232 233 235 237 239 241 241 242 242 243 243 241 240 239 240 242 243 244 245 246 246 247 248 250 251 250 250 252 253 254 255 255 255 255 256 256 256 254 253 253 252 250 251 254 256 255 256 261 263 260 257 254 251 251 251 247 246 248 252 254 255 256 256 253 257 262 261 256 258 261 261 258 256 256 254 252 250 248 247
222 224 226 227 230 231 233 233 235 237 239 240 242 242 243 244 244 243 242 241 241 243 245 246 247 248 248 248 249 251 252 251 251 252 252 253 253 253 254 254 255 256 256 254 253 253 253 251 251 254 257 257 258 262 264 262 259 257 256 256 256 253 253 254 255 254 253 255 255 249 253 263 260 254 259 263 262 260 259 256 254 252 249 246 244
223 224 225 227 229 231 233 233 234 237 239 240 241 242 244 244 243 243 242 241 242 244 246 247 248 249 250 250 250 252 252 253 253 254 254 254 253 252 253 253 255 257 257 257 256 256 256 255 255 257 258 259 260 261 262 261 260 259 258 257 255 250 249 252 253 252 250 253 252 244 248 260 259 252 259 263 260 259 259 256 253 251 247 242 240
221 223 224 226 228 231 232 233 233 236 238 240 240 241 243 243 242 241 241 241 242 243 246 248 249 250 251 251 251 252 253 254 255 256 256 254 252 252 252 253 255 256 258 259 259 261 261 260 261 261 262 263 262 262 262 260 259 257 254 252 250 242 238 246 253 254 253 253 250 243 241 252 255 250 253 258 256 256 257 255 252 250 245 240 236
221 223 224 226 228 230 232 233 233 235 238 239 240 240 241 242 241 240 240 240 241 243 245 247 249 250 251 252 252 252 253 254 256 257 257 255 252 252 252 253 254 255 257 258 259 261 262 262 263 263 263 264 264 264 263 261 258 255 249 248 250 241 231 241 255 261 260 255 249 239 232 242 248 244 243 247 248 249 250 250 249 246 241 236 233
221 223 223 225 228 230 232 234 235 236 238 239 240 240 240 240 240 239 239 238 239 241 243 245 248 249 251 252 253 252 253 255 256 257 257 256 253 253 253 252 253 255 257 257 257 258 259 260 261 261 261 263 264 265 265 263 260 256 250 250 253 245 232 236 241 244 251 254 248 235 224 234 242 237 232 230 235 245 244 241 242 240 235 232 229